This demonstration page uses our WeatherBlox Daily Observations layout. Learn more.

36.17497, -115.13722

Hourly Observations for May 22, 2015

Temp ( °F °C ) Dew Point ( °F °C ) Humidity (%) Winds ( mph kmh ) Pressure ( in mb ) Visibility ( mi km ) Precip ( " mm )
12:53 am 00:53 Clear 66 18.9 34 1.1 30 30 S 5 7 29.77 1008 10 16.0934 0 0
1:53 am 01:53 Clear 65 18.3 34 1.1 32 32 ESE 3 6 29.77 1008 10 16.0934 0 0
2:53 am 02:53 Clear 64 17.8 36 2.2 35 35 S 8 13 29.78 1008 10 16.0934 0 0
3:53 am 03:53 Clear 64 17.8 37 2.8 37 37 SSE 6 9 29.8 1009 10 16.0934 0 0
4:53 am 04:53 Clear 63 17.2 37 2.8 38 38 Calm 29.81 1010 10 16.0934 0 0
5:53 am 05:53 Sunny 63 17.2 38 3.3 40 40 SW 3 6 29.83 1010 10 16.0934 0 0
6:53 am 06:53 Sunny 62 16.7 39 3.9 43 43 SSW 5 7 29.84 1011 10 16.0934 0 0
7:53 am 07:53 Sunny 64 17.8 39 3.9 40 40 ESE 6 9 29.85 1011 10 16.0934 0 0
8:53 am 08:53 Sunny 64 17.8 38 3.3 38 38 SSE 7 11 29.86 1011 10 16.0934 0 0
9:53 am 09:53 Sunny 65 18.3 36 2.2 34 34 ESE 6 9 29.87 1011 10 16.0934 0 0
10:53 am 10:53 Sunny 67 19.4 36 2.2 32 32 VRB 5 7 29.87 1011 10 16.0934 0 0
11:53 am 11:53 Sunny 71 21.7 35 1.7 27 27 E 6 9 29.84 1011 10 16.0934 0 0
12:53 pm 12:53 Mostly Cloudy 72 22.2 35 1.7 26 26 SSW 13 20 29.81 1010 10 16.0934 0 0
1:19 pm 13:19 Mostly Cloudy 72 22.2 37 2.8 28 28 W 22 35 29.71 1006 10 16.0934 0 0
1:53 pm 13:53 Mostly Sunny 72 22.2 37 2.8 28 28 W 14 22 29.81 1010 10 16.0934 0 0
2:53 pm 14:53 Sunny 72 22.2 33 0.6 24 24 W 7 11 29.81 1009 10 16.0934 0 0
3:53 pm 15:53 Partly Cloudy 74 23.3 30 -1.1 20 20 undefined N/A 29.8 1009 10 16.0934 0 0
4:53 pm 16:53 Sunny 71 21.7 36 2.2 28 28 S 17 28 29.82 1010 10 16.0934 0 0
5:53 pm 17:53 Sunny 68 20 39 3.9 35 35 NNW 26 43 29.83 1010 10 16.0934 0 0
6:53 pm 18:53 Sunny 68 20 37 2.8 32 32 NNW 7 11 29.85 1011 10 16.0934 0 0
7:53 pm 19:53 Clear 68 20 36 2.2 31 31 Calm 29.87 1012 10 16.0934 0 0
8:53 pm 20:53 Mostly Clear 67 19.4 37 2.8 33 33 S 6 9 29.88 1012 10 16.0934 0 0
9:53 pm 21:53 Mostly Clear 65 18.3 38 3.3 37 37 E 8 13 29.91 1013 10 16.0934 0 0
10:53 pm 22:53 Clear 62 16.7 37 2.8 40 40 ESE 7 11 29.91 1013 10 16.0934 0 0
11:53 pm 23:53 Clear 63 17.2 37 2.8 38 38 Calm 29.91 1013 10 16.0934 0 0

Powered by AerisWeather